Regional Weather Roundup
Issued by NWS Cleveland, OH

Home | Current Version | Previous Version | Graphics & Text | Print | Product List | Glossary On
Versions: 1 2 3 4 5 6 7 8 9 10 11 12 13 14 15 16 17 18 19 20 21 22 23 24 25 26 27 28 29 30 31 32 33 34 35 36 37 38 39 40 41 42 43 44 45 46 47 48 49 50
000
ASUS41 KCLE 111610
RWRCLE
OHIO REGIONAL WEATHER ROUNDUP
NATIONAL WEATHER SERVICE WILMINGTON, OH
1200 PM EDT FRI JUL 11 2014

NOTE: "FAIR" INDICATES FEW OR NO CLOUDS BELOW 12,000 FEET WITH NO
SIGNIFICANT WEATHER AND/OR OBSTRUCTIONS TO VISIBILITY.

OHZ001>008-015>018-024>027-034-035-043-044-111700-
   NORTHWEST OHIO

CITY           SKY/WX    TMP DP  RH WIND       PRES   REMARKS
DEFIANCE       MOSUNNY   76  58  53 CALM      30.25S
FINDLAY        SUNNY     78  57  48 N5        30.24R
TOLEDO EXPRESS PTSUNNY   76  58  53 VRB3      30.24S
TOLEDO METCALF PTSUNNY   77  57  50 E5        30.25R
LIMA           MOSUNNY   76  57  51 SW3       30.25R
$$

OHZ009>014-019>023-028>033-038-089-111700-
   NORTHEAST OHIO

CITY           SKY/WX    TMP DP  RH WIND       PRES   REMARKS
CLE-HOPKINS    SUNNY     76  59  55 N9        30.25S
CLE-LAKEFRONT  SUNNY     75  60  59 N10       30.22S
CUY CO. ARPT   MOSUNNY   79  61  53 E9        30.25S
LORAIN-ELYRIA  SUNNY     79  56  45 CALM      30.25R
ASHTABULA      SUNNY     76  56  49 NE3       30.25S
AKRON-CANTON   SUNNY     79  55  43 NE3       30.23S
WOOSTER        SUNNY     79  57  46 CALM      30.24S
MANSFIELD      SUNNY     79  55  43 NW6       30.25S
YOUNGSTOWN     MOSUNNY   78  59  51 CALM      30.24S
$$

OHZ042-051>053-060>062-070>072-077>081-111700-
  SOUTHWEST OHIO

CITY           SKY/WX    TMP DP  RH WIND       PRES   REMARKS
CINC-COVINGTON PTSUNNY   79  56  45 CALM      30.22S
CINC-LUNKEN    SUNNY     82  57  42 CALM      30.22S
HAMILTON       MOSUNNY   81  57  43 E5        30.23S
DAYTON         PTSUNNY   77  58  51 CALM      30.25R
WRIGHT-PAT AFB MOSUNNY   77  58  52 VRB2      30.23S
DAYTON GENERAL MOSUNNY   78  58  49 CALM      30.23R
WILMINGTON     SUNNY     78  56  46 CALM      30.23S
$$

OHZ036-037-039>041-045>050-054>059-063>069-073>076-082>088-111700-
  CENTRAL AND SOUTHEAST OHIO

CITY           SKY/WX    TMP DP  RH WIND       PRES   REMARKS
COLUMBUS       MOSUNNY   81  53  37 W5        30.22S
OSU AIRPORT    MOSUNNY   79  52  38 CALM      30.23R
BOLTON FIELD   SUNNY     77  55  47 CALM      30.23S
RICKENBACK AFB SUNNY     81  50  33 E5        30.22S
NEWARK         SUNNY     78  55  44 NE5       30.22F
MARION         SUNNY     77  53  43 SW5       30.24S
LANCASTER      SUNNY     80  57  45 VRB5      30.23S
ZANESVILLE     SUNNY     78  57  48 N5        30.22F
NEW PHILLY       N/A     77  61  57 CALM      30.23S
$$



USA.gov is the U.S. government's official web portal to all federal, state and local government web resources and services.